AUA9069 LOWG-LOWL

Flight info

Callsign AUA9069
Flight time 0h 20m
Altitude 16000
Route MILGO DCT ABRUK DCT EPOLA DCT LIMRA LIMRA2K
Aircraft A321/M-SDE3FGHIRWY/LB1

Departure

Time 2026-04-24 16:00
Airport Graz Airport (LOWG)

Arrival

Time 2026-04-24 16:20
Airport Linz-Hörsching Airport (LOWL)
Time Latitude Longitude Altitude Speed Heading
2026-04-24 15:51 46.99878 15.44297 1112 ft 0 kts 350°
2026-04-24 15:56 46.99890 15.44287 1121 ft 2 kts 310°
2026-04-24 15:57 46.99888 15.44272 1112 ft 3 kts 270°
2026-04-24 15:57 46.99903 15.44179 1120 ft 16 kts 296°
2026-04-24 15:57 46.99928 15.44019 1117 ft 16 kts 256°
2026-04-24 15:57 46.99870 15.43922 1115 ft 13 kts 201°
2026-04-24 15:58 46.99775 15.43883 1118 ft 16 kts 195°
2026-04-24 15:58 46.99708 15.43822 1115 ft 8 kts 218°
2026-04-24 15:58 46.99654 15.43813 1113 ft 8 kts 170°
2026-04-24 15:58 46.99647 15.43815 1109 ft 0 kts 168°
2026-04-24 15:59 46.99537 15.43846 1113 ft 54 kts 169°
2026-04-24 15:59 46.98884 15.44024 1107 ft 133 kts 169°
2026-04-24 15:59 46.97853 15.44303 1534 ft 154 kts 166°
2026-04-24 16:00 46.96792 15.44607 2321 ft 159 kts 168°
2026-04-24 16:00 46.95803 15.45453 2775 ft 179 kts 122°
2026-04-24 16:00 46.95586 15.47270 3150 ft 196 kts 72°
2026-04-24 16:00 46.96377 15.48912 3583 ft 208 kts 40°
2026-04-24 16:01 46.97548 15.50224 4079 ft 221 kts 25°
2026-04-24 16:01 46.99157 15.50589 4438 ft 248 kts 349°
2026-04-24 16:01 47.00727 15.49401 5164 ft 269 kts 320°
2026-04-24 16:01 47.02164 15.47451 5697 ft 294 kts 317°
2026-04-24 16:02 47.03717 15.45328 6212 ft 319 kts 317°
2026-04-24 16:02 47.05389 15.43044 6600 ft 343 kts 316°
2026-04-24 16:02 47.07171 15.40615 7221 ft 356 kts 316°
2026-04-24 16:02 47.09006 15.38116 8111 ft 361 kts 317°
2026-04-24 16:03 47.10851 15.35606 9070 ft 362 kts 317°
2026-04-24 16:03 47.12705 15.33085 9990 ft 365 kts 317°
2026-04-24 16:03 47.14596 15.30517 10600 ft 375 kts 317°
2026-04-24 16:03 47.16600 15.28022 11216 ft 381 kts 322°
2026-04-24 16:04 47.18710 15.25627 11884 ft 385 kts 323°
2026-04-24 16:04 47.20867 15.23251 12534 ft 389 kts 324°
2026-04-24 16:04 47.23053 15.20878 13138 ft 393 kts 324°
2026-04-24 16:04 47.25270 15.18478 13747 ft 398 kts 324°
2026-04-24 16:05 47.29764 15.13572 14766 ft 406 kts 324°
2026-04-24 16:05 47.32035 15.11068 15336 ft 409 kts 324°
2026-04-24 16:06 47.36615 15.05992 16017 ft 412 kts 324°
2026-04-24 16:06 47.38909 15.03442 16071 ft 413 kts 324°
2026-04-24 16:06 47.43493 14.98344 16061 ft 412 kts 324°
2026-04-24 16:07 47.45789 14.95790 16062 ft 411 kts 324°
2026-04-24 16:07 47.48071 14.93250 16066 ft 411 kts 324°
2026-04-24 16:07 47.52632 14.88154 16075 ft 411 kts 324°
2026-04-24 16:08 47.54914 14.85601 16070 ft 411 kts 324°
2026-04-24 16:08 47.59446 14.80520 16085 ft 411 kts 324°
2026-04-24 16:09 47.64012 14.75396 16097 ft 412 kts 324°
2026-04-24 16:09 47.66299 14.72829 15970 ft 412 kts 324°
2026-04-24 16:09 47.68577 14.70289 15474 ft 407 kts 326°
2026-04-24 16:09 47.71062 14.68377 14994 ft 396 kts 339°
2026-04-24 16:10 47.78467 14.64322 13184 ft 369 kts 340°
2026-04-24 16:11 47.83238 14.61758 11904 ft 361 kts 340°
2026-04-24 16:11 47.85593 14.60516 11289 ft 357 kts 340°
2026-04-24 16:11 47.87926 14.59301 10679 ft 353 kts 340°
2026-04-24 16:12 47.92458 14.57017 9505 ft 334 kts 340°
2026-04-24 16:12 47.94642 14.55945 8867 ft 326 kts 340°
2026-04-24 16:12 47.98791 14.53818 7760 ft 308 kts 336°
2026-04-24 16:13 48.00742 14.52592 7292 ft 300 kts 335°
2026-04-24 16:13 48.04445 14.50273 6407 ft 273 kts 335°
2026-04-24 16:14 48.07773 14.48228 5566 ft 244 kts 334°
2026-04-24 16:14 48.09317 14.47303 5183 ft 234 kts 335°
2026-04-24 16:14 48.12250 14.45567 4433 ft 221 kts 334°
2026-04-24 16:15 48.13197 14.45013 4265 ft 210 kts 335°
2026-04-24 16:15 48.16112 14.43255 3674 ft 181 kts 329°
2026-04-24 16:16 48.18165 14.41422 3566 ft 163 kts 323°
2026-04-24 16:16 48.19127 14.40512 3535 ft 163 kts 323°
2026-04-24 16:17 48.22102 14.37515 3125 ft 177 kts 318°
2026-04-24 16:17 48.23559 14.34726 2765 ft 168 kts 294°
2026-04-24 16:18 48.23687 14.31395 2384 ft 152 kts 265°
2026-04-24 16:18 48.23659 14.28640 2109 ft 122 kts 269°
2026-04-24 16:18 48.23595 14.27381 1872 ft 121 kts 268°
2026-04-24 16:19 48.23522 14.24871 1646 ft 121 kts 268°
2026-04-24 16:19 48.23477 14.23629 1435 ft 118 kts 269°
2026-04-24 16:20 48.23407 14.21160 1083 ft 119 kts 269°
2026-04-24 16:20 48.23331 14.18921 979 ft 86 kts 266°
2026-04-24 16:20 48.23307 14.18318 983 ft 32 kts 266°
2026-04-24 16:21 48.23315 14.17911 992 ft 14 kts 315°
2026-04-24 16:21 48.23448 14.17922 983 ft 25 kts 15°
2026-04-24 16:21 48.23622 14.17994 979 ft 27 kts 17°
2026-04-24 16:22 48.23719 14.18131 981 ft 18 kts 84°
2026-04-24 16:22 48.23732 14.18506 981 ft 18 kts 88°
2026-04-24 16:22 48.23740 14.18690 990 ft 18 kts 86°
2026-04-24 16:23 48.23745 14.18879 979 ft 19 kts 87°
2026-04-24 16:23 48.23752 14.19077 986 ft 19 kts 86°
2026-04-24 16:23 48.23768 14.19200 979 ft 8 kts 43°
2026-04-24 16:24 48.23863 14.19271 976 ft 0 kts 88°